Regional Weather Roundup
Issued by NWS

Home | Current Version | Previous Version | Graphics & Text | Print | Product List | Glossary On
Versions: 1 2 3 4 5 6 7 8 9 10 11 12 13 14 15 16 17 18 19 20 21 22 23 24 25 26 27 28 29 30 31 32 33 34 35 36 37 38 39 40 41 42 43 44 45 46 47 48 49 50
000
ASUS43 KMPX 241601
RWRMN
WEATHER ROUNDUP FOR MINNESOTA
NATIONAL WEATHER SERVICE TWIN CITIES/CHANHASSEN MN
1000 AM CST MON NOV 24 2014


NOTE: "FAIR" INDICATES FEW OR NO CLOUDS BELOW 12,000 FEET WITH NO
SIGNIFICANT WEATHER AND/OR OBSTRUCTIONS TO VISIBILITY. N/A MEANS
CURRENT SKY AND/OR WEATHER CONDITIONS ARE NOT AVAILABLE.

MNZ060>063-068>070-241700-
   Twin Cities Metro

CITY           SKY/WX    TMP DP  RH WIND       PRES   REMARKS
TWIN CITIES    CLOUDY    22  18  85 W15       29.43R WCI   9
ST PAUL        CLOUDY    23  19  85 NW23G31   29.43R WCI   7
CRYSTAL        CLOUDY    23  17  78 NW23G29   29.43R WCI   7
BLAINE         CLOUDY    25  21  86 W18G24    29.41R WCI  11
LAKEVILLE      CLOUDY    19  18  93 W18G32    29.42R WCI   4
EDEN PRAIRIE   CLOUDY    22  16  78 NW16G23   29.44R WCI   8
SOUTH ST PAUL  CLOUDY    24  20  82 NW12      29.42R WCI  13
LAKE ELMO      CLOUDY    27  21  80 NW14G23   29.40R WCI  15
$$
MNZ001>005-007-008-013>017-022>024-027-028-241700-
   Northwest Minnesota

CITY           SKY/WX    TMP DP  RH WIND       PRES   REMARKS
BEMIDJI        LGT SNOW  12   8  83 NW15G23   29.55R WCI  -4
HALLOCK        PTSUNNY    5   0  78 N25G32    29.77R WCI -18
ROSEAU         CLOUDY    10   5  79 N16       29.67R WCI  -7
WARROAD        LGT SNOW  10   7  85 NW13G18   29.65R WCI  -5
THIEF RVR FALL CLOUDY     7   1  78 NW17      29.68R WCI -12
CROOKSTON      CLOUDY     7   3  85 N28G33    29.74R FOG     WCI -16
FOSSTON        LGT SNOW   7   3  85 NW17G23   29.64R WCI -12
DETROIT LAKES  LGT SNOW  10   7  85 NW18G31   29.62R WCI  -8
MOORHEAD       LGT SNOW   9   7  92 N30G36    29.72R WCI -14
PARK RAPIDS    LGT SNOW  11   7  84 NW17G24   29.53R FOG     WCI  -6
$$
MNZ006-009>011-018-025>026-241700-
   North Central Minnesota

CITY           SKY/WX    TMP DP  RH WIND       PRES   REMARKS
BAUDETTE       LGT SNOW  12   7  80 N20G26    29.58R WCI  -6
FLAG ISLAND    CLOUDY    10   7  85 N16G30    29.63S FOG     WCI  -7
INTL FALLS     FLURRIES  16  11  80 N21G29    29.50R WCI  -1
WASKISH        LGT SNOW  14  10  85 NW12G20   29.56R WCI   0
BIG FORK       LGT SNOW  18  14  86 NW6G22    29.47R WCI   9
LONGVILLE      LGT SNOW  16  12  86 NW10G21   29.48R WCI   3
GRAND RAPIDS   CLOUDY    18  12  79 NW21G31   29.42R WCI   1
CRANE LAKE     CLOUDY    19  16  86 N13G21    29.45R WCI   7
ORR            MIX PCPN  19  16  86 NW14      29.40R WCI   6
COOK           FLURRIES  21  19  93 NW7       29.40R WCI  13
$$
MNZ012-019>021-037-241700-
   Northeast Minnesota

CITY           SKY/WX    TMP DP  RH WIND       PRES   REMARKS
DULUTH         LGT SNOW  29  24  82 NW24G32   29.26R VSB 3/4 WCI  15
ELY            LGT SNOW  21  19  93 N9G16     29.33R WCI  11
HIBBING        LGT SNOW  24  18  77 NW24G31   29.37R WCI   8
EVELETH        CLOUDY    27  23  86 NW21      29.37R WCI  13
DULUTH HARBOR  CLOUDY    34  28  80 NW14      29.31R WCI  24
TWO HARBORS    LGT SNOW  34  27  75 NW10G22   29.23R WCI  26
SILVER BAY     CLOUDY    30  23  74 NW13G23   29.23R WCI  20
GRAND MARAIS     N/A     25  17  72 N24G47    29.17R WCI   9
G MARAIS ARPRT LGT SNOW  18  12  79 NW21G36   29.20R WCI   1
$$
MNZ029>031-032-039>041-046>048-054>057-064-241700-
   West Central Minnesota

CITY           SKY/WX    TMP DP  RH WIND       PRES   REMARKS
FERGUS FALLS   CLOUDY     9   3  78 N25G33    29.68R HAZE    WCI -13
WHEATON        CLOUDY     9   3  78 NW24G32   29.70R WCI -12
MORRIS           N/A    N/A N/A N/A NW31      29.61R
ALEXANDRIA     LGT SNOW  12   7  80 NW20G32   29.55R WCI  -6
ELBOW LAKE     LGT SNOW  10   6  85 NW29G35   29.62R WCI -13
WADENA         LGT SNOW  10   7  85 NW18G25   29.54R WCI  -8
GLENWOOD       LGT SNOW  12   9  85 NW24G32   29.54R WCI  -8
APPLETON       LGT SNOW  16   9  73 NW26G37   29.65R WCI  -3
BENSON         LGT SNOW  12   9  85 N30G39    29.59R WCI  -9
ORTONVILLE     LGT SNOW  12   5  73 NW26G33   29.66R WCI  -8
MADISON        LGT SNOW  18  12  79 NW23G32   29.66R WCI   0
WILLMAR        LGT SNOW  16   9  73 NW25G35   29.56R VSB 1   WCI  -3
$$
MNZ033>034-036-042>043-049>051-058-059-241700-
   Central Minnesota

CITY           SKY/WX    TMP DP  RH WIND       PRES   REMARKS
ST CLOUD       CLOUDY    19  12  74 NW25G32   29.46R WCI   1
SAUK CENTRE    LGT SNOW  13   9  82 NW22G28   29.52R WCI  -5
PAYNESVILLE    LGT SNOW  12  10  89 W14G24    29.53R VSB 1   WCI  -3
AITKIN         MIX PCPN  21  16  79 NW9G18    29.42R WCI  11
PINE RIVER     LGT SNOW  16  10  79 NW14G24   29.53R WCI   1
BRAINERD       FLURRIES  16  12  84 NW21G29   29.48R WCI  -1
STAPLES        FLURRIES  12   9  85 NW18G24   29.52R WCI  -5
LONG PRAIRIE   LGT SNOW  12   9  85 NW22G30   29.52R WCI  -7
LITTLE FALLS   CLOUDY    18  10  73 NW16G26   29.49R WCI   3
LITCHFIELD     CLOUDY    18  12  79 NW21G33   29.51R WCI   1
BUFFALO        CLOUDY    20  13  75 W14G22    29.48R WCI   7
MAPLE LAKE     CLOUDY    20  15  79 NW16      29.48R WCI   6
$$
MNZ037-044-045-052-053-241700-
   East Central Minnesota

CITY           SKY/WX    TMP DP  RH WIND       PRES   REMARKS
PRINCETON      CLOUDY    21  16  79 W13G23    29.43R WCI   9
MORA           CLOUDY    23  19  86 NW18G29   29.41R WCI   9
CAMBRIDGE      CLOUDY    25  18  74 NW13      29.40R WCI  13
RUSH CITY      CLOUDY    24  21  87 NW18G25   29.39R WCI  11
MOOSE LAKE     CLOUDY    27  23  86 NW14G20   29.34R WCI  15
HINCKLEY       LGT SNOW  27  23  86 NW13G30   29.36R WCI  16
CLOQUET        CLOUDY    28  25  86 NW25G33   29.30R WCI  14
MCGREGOR       CLOUDY    23  21  93 NW17G24   29.40R WCI   9
$$
MNZ071>073-080-081-089-090-097-098-241700-
   Southwest Minnesota

CITY           SKY/WX    TMP DP  RH WIND       PRES   REMARKS
MONTEVIDEO     LGT SNOW  16  12  86 N31G37    29.62R WCI  -5
GRANITE FALLS  LGT SNOW  15  11  82 NW22G32   29.63R WCI  -3
CANBY          FLURRIES  16  11  79 NW26      29.66R WCI  -3
MARSHALL       PTSUNNY   16   7  67 NW29G36   29.61R WCI  -4
REDWOOD FALLS  LGT SNOW  16  11  80 NW21G35   29.57R WCI  -1
OLIVIA         LGT SNOW  18  12  79 NW29G37   29.55R WCI  -2
PIPESTONE      FLURRIES  18  10  73 N24G36    29.60R WCI   0
WINDOM         LGT SNOW  16  12  86 NW21G31   29.55R WCI  -2
WORTHINGTON    CLOUDY    18  10  73 NW25G31   29.58R WCI  -1
JACKSON        CLOUDY    19  12  73 NW26G36   29.54R WCI   1
TRACY          FLURRIES  18  12  77 NW32G40   29.60R WCI  -3
SLAYTON        LGT SNOW  18  13  82 NW26G32   29.58R WCI  -1
$$
MNZ065>067-074>077-082>085-091>093-241700-
   South Central Minnesota

CITY           SKY/WX    TMP DP  RH WIND       PRES   REMARKS
MANKATO        CLOUDY    18   9  68 NW21G28   29.50R WCI   1
NEW ULM        FLURRIES  16  10  79 NW30G39   29.53R WCI  -4
ST JAMES       FLURRIES  18  12  79 W29G38    29.54R WCI  -2
FAIRMONT       CLOUDY    18  10  73 NW28G36   29.53R WCI  -1
GLENCOE        MOSUNNY   20  15  81 W25G31    29.48R WCI   3
FARIBAULT      CLOUDY    21  18  86 W17G25    29.44R WCI   7
OWATONNA       CLOUDY    21  16  79 W18G26    29.44R WCI   6
WASECA         CLOUDY    19  12  73 NW25G33   29.48R WCI   2
ALBERT LEA     CLOUDY    19  16  86 NW12G26   29.44R WCI   7
$$
MNZ078>079-086>088-094>096-241700-
   Southeast Minnesota

CITY           SKY/WX    TMP DP  RH WIND       PRES   REMARKS
ROCHESTER      CLOUDY    22  19  89 NW23G30   29.36R BLWGSNOWWCI   6
RED WING       CLOUDY    25  21  86 W17G23    29.38R FOG     WCI  11
STANTON        CLOUDY    24  19  81 NW22      29.41R WCI   9
DODGE CENTER   CLOUDY    21  19  93 NW20G25   29.38R WCI   6
WINONA         LGT SNOW  30  28  93 NW20G25   29.34R WCI  18
AUSTIN         CLOUDY    19  16  86 NW23G35   29.41R WCI   2
PRESTON        CLOUDY    22  20  91 NW23G32   29.36R FOG     WCI   6
$$
ABBREVIATIONS USED IN REMARKS
   TC - TEMPERATURES IN CELSIUS
  WCI - WIND CHILL INDEX
   HX - HEAT INDEX
  VSB - VISIBILITY
$$



USA.gov is the U.S. government's official web portal to all federal, state and local government web resources and services.